N571GT KPDK-KRVS

Flight info

Callsign N571GT
Flight time 2h 15m
Altitude 38000
Route WETWO GAD
Aircraft C525/L-SDFGRWY/SB1

Departure

Time 2026-04-18 06:28
Airport DeKalb Peachtree Airport (KPDK)

Arrival

Time 2026-04-18 08:43
Airport Tulsa Riverside Airport (KRVS)
Time Latitude Longitude Altitude Speed Heading
2026-04-18 06:12 33.87534 -84.30415 985 ft 0 kts 56°
2026-04-18 06:19 33.87535 -84.30411 985 ft 0 kts 57°
2026-04-18 06:19 33.87540 -84.30404 985 ft 1 kts 57°
2026-04-18 06:19 33.87548 -84.30389 984 ft 2 kts 57°
2026-04-18 06:20 33.87559 -84.30370 984 ft 3 kts 57°
2026-04-18 06:20 33.87573 -84.30345 983 ft 1 kts 56°
2026-04-18 06:21 33.87573 -84.30344 983 ft 0 kts 60°
2026-04-18 06:21 33.87572 -84.30342 983 ft 0 kts 157°
2026-04-18 06:22 33.87568 -84.30344 983 ft 2 kts 206°
2026-04-18 06:22 33.87552 -84.30353 984 ft 2 kts 206°
2026-04-18 06:22 33.87533 -84.30363 984 ft 3 kts 200°
2026-04-18 06:22 33.87505 -84.30375 985 ft 4 kts 200°
2026-04-18 06:23 33.87474 -84.30389 985 ft 5 kts 201°
2026-04-18 06:23 33.87436 -84.30407 986 ft 6 kts 202°
2026-04-18 06:23 33.87385 -84.30428 986 ft 9 kts 200°
2026-04-18 06:23 33.87318 -84.30459 987 ft 10 kts 201°
2026-04-18 06:24 33.87247 -84.30492 987 ft 11 kts 201°
2026-04-18 06:24 33.87167 -84.30527 988 ft 11 kts 200°
2026-04-18 06:24 33.87107 -84.30554 989 ft 7 kts 201°
2026-04-18 06:24 33.87065 -84.30573 989 ft 6 kts 200°
2026-04-18 06:25 33.87006 -84.30599 988 ft 9 kts 201°
2026-04-18 06:25 33.86948 -84.30615 987 ft 7 kts 160°
2026-04-18 06:25 33.86917 -84.30561 986 ft 9 kts 110°
2026-04-18 06:25 33.86892 -84.30475 984 ft 13 kts 110°
2026-04-18 06:26 33.86875 -84.30395 981 ft 4 kts 33°
2026-04-18 06:26 33.86883 -84.30390 981 ft 0 kts 21°
2026-04-18 06:27 33.86942 -84.30363 981 ft 35 kts 20°
2026-04-18 06:27 33.87384 -84.30166 978 ft 96 kts 20°
2026-04-18 06:27 33.88132 -84.29812 1102 ft 124 kts 22°
2026-04-18 06:27 33.88959 -84.29441 1553 ft 126 kts 18°
2026-04-18 06:28 33.89824 -84.29059 1852 ft 145 kts 20°
2026-04-18 06:28 33.90842 -84.28658 2259 ft 157 kts
2026-04-18 06:28 33.91931 -84.28867 2628 ft 169 kts 329°
2026-04-18 06:28 33.92878 -84.29783 3081 ft 179 kts 315°
2026-04-18 06:29 33.93830 -84.30813 3524 ft 190 kts 315°
2026-04-18 06:29 33.94482 -84.31987 4439 ft 165 kts 283°
2026-04-18 06:29 33.94522 -84.33394 4966 ft 166 kts 262°
2026-04-18 06:29 33.94330 -84.34827 5185 ft 189 kts 257°
2026-04-18 06:30 33.94001 -84.36473 5416 ft 210 kts 254°
2026-04-18 06:30 33.93611 -84.38157 5935 ft 213 kts 252°
2026-04-18 06:30 33.93185 -84.39883 6474 ft 216 kts 252°
2026-04-18 06:30 33.92741 -84.41618 7009 ft 219 kts 252°
2026-04-18 06:31 33.92288 -84.43340 7655 ft 220 kts 253°
2026-04-18 06:31 33.91821 -84.45084 8318 ft 221 kts 253°
2026-04-18 06:31 33.91338 -84.46869 8920 ft 224 kts 254°
2026-04-18 06:31 33.90854 -84.48645 9487 ft 227 kts 255°
2026-04-18 06:32 33.90353 -84.50465 10054 ft 230 kts 254°
2026-04-18 06:32 33.89847 -84.52293 10644 ft 231 kts 255°
2026-04-18 06:32 33.89335 -84.54140 11204 ft 232 kts 255°
2026-04-18 06:32 33.88827 -84.55963 11732 ft 234 kts 255°
2026-04-18 06:33 33.88308 -84.57824 12311 ft 237 kts 255°
2026-04-18 06:33 33.87783 -84.59701 12912 ft 238 kts 255°
2026-04-18 06:33 33.87253 -84.61598 13499 ft 240 kts 255°
2026-04-18 06:33 33.86724 -84.63485 14106 ft 240 kts 255°
2026-04-18 06:34 33.86183 -84.65409 14702 ft 241 kts 254°
2026-04-18 06:34 33.85644 -84.67329 15263 ft 241 kts 254°
2026-04-18 06:34 33.85135 -84.69147 15803 ft 241 kts 255°
2026-04-18 06:34 33.84607 -84.71027 16323 ft 242 kts 254°
2026-04-18 06:35 33.84069 -84.72937 16789 ft 244 kts 254°
2026-04-18 06:35 33.83522 -84.74876 17282 ft 245 kts 254°
2026-04-18 06:35 33.82979 -84.76796 17773 ft 245 kts 254°
2026-04-18 06:35 33.82431 -84.78735 18251 ft 246 kts 254°
2026-04-18 06:36 33.81872 -84.80709 18761 ft 246 kts 254°
2026-04-18 06:36 33.81319 -84.82665 19188 ft 248 kts 255°
2026-04-18 06:36 33.80772 -84.84597 19655 ft 248 kts 255°
2026-04-18 06:36 33.80215 -84.86560 20132 ft 248 kts 255°
2026-04-18 06:37 33.79655 -84.88539 20481 ft 251 kts 255°
2026-04-18 06:37 33.79095 -84.90511 20959 ft 250 kts 255°
2026-04-18 06:37 33.78537 -84.92481 21345 ft 252 kts 256°
2026-04-18 06:37 33.77976 -84.94458 21771 ft 252 kts 256°
2026-04-18 06:38 33.77405 -84.96465 22192 ft 252 kts 256°
2026-04-18 06:38 33.76838 -84.98459 22541 ft 254 kts 256°
2026-04-18 06:38 33.76263 -85.00482 22922 ft 255 kts 256°
2026-04-18 06:38 33.75695 -85.02474 23246 ft 258 kts 256°
2026-04-18 06:39 33.75110 -85.04527 23665 ft 257 kts 256°
2026-04-18 06:39 33.74543 -85.06512 24092 ft 255 kts 256°
2026-04-18 06:39 33.73964 -85.08542 24412 ft 257 kts 256°
2026-04-18 06:39 33.73391 -85.10548 24792 ft 256 kts 256°
2026-04-18 06:40 33.73165 -85.12660 25032 ft 254 kts 278°
2026-04-18 06:40 33.73526 -85.14720 25420 ft 252 kts 285°
2026-04-18 06:40 33.74013 -85.16739 25782 ft 251 kts 286°
2026-04-18 06:40 33.74535 -85.18765 25978 ft 256 kts 287°
2026-04-18 06:41 33.75068 -85.20798 26363 ft 254 kts 287°
2026-04-18 06:41 33.75606 -85.22851 26649 ft 256 kts 287°
2026-04-18 06:41 33.76145 -85.24908 26936 ft 257 kts 287°
2026-04-18 06:41 33.76682 -85.26958 27204 ft 258 kts 287°
2026-04-18 06:42 33.77218 -85.29009 27515 ft 258 kts 286°
2026-04-18 06:42 33.77752 -85.31054 27753 ft 260 kts 286°
2026-04-18 06:42 33.78294 -85.33129 28101 ft 258 kts 287°
2026-04-18 06:42 33.78836 -85.35203 28271 ft 262 kts 287°
2026-04-18 06:43 33.79385 -85.37299 28539 ft 262 kts 285°
2026-04-18 06:43 33.79933 -85.39393 28818 ft 262 kts 286°
2026-04-18 06:43 33.80477 -85.41472 29042 ft 263 kts 285°
2026-04-18 06:43 33.81026 -85.43574 29286 ft 264 kts 286°
2026-04-18 06:44 33.81583 -85.45708 29487 ft 265 kts 286°
2026-04-18 06:44 33.82132 -85.47811 29745 ft 265 kts 286°
2026-04-18 06:44 33.82683 -85.49927 29942 ft 266 kts 285°
2026-04-18 06:44 33.83231 -85.52031 30237 ft 264 kts 285°
2026-04-18 06:45 33.83778 -85.54135 30364 ft 267 kts 286°
2026-04-18 06:45 33.84333 -85.56270 30681 ft 264 kts 286°
2026-04-18 06:45 33.84884 -85.58392 30821 ft 267 kts 285°
2026-04-18 06:45 33.85438 -85.60528 31015 ft 267 kts 285°
2026-04-18 06:46 33.85986 -85.62641 31230 ft 267 kts 285°
2026-04-18 06:46 33.86537 -85.64771 31420 ft 267 kts 286°
2026-04-18 06:46 33.87091 -85.66908 31660 ft 267 kts 285°
2026-04-18 06:46 33.87642 -85.69041 31814 ft 269 kts 286°
2026-04-18 06:47 33.88196 -85.71182 32006 ft 269 kts 285°
2026-04-18 06:47 33.88754 -85.73342 32219 ft 269 kts 285°
2026-04-18 06:47 33.89310 -85.75499 32362 ft 270 kts 285°
2026-04-18 06:47 33.89862 -85.77639 32626 ft 268 kts 285°
2026-04-18 06:48 33.90420 -85.79806 32726 ft 271 kts 285°
2026-04-18 06:48 33.90976 -85.81963 32912 ft 271 kts 285°
2026-04-18 06:48 33.91531 -85.84119 33127 ft 270 kts 285°
2026-04-18 06:48 33.92088 -85.86285 33269 ft 271 kts 285°
2026-04-18 06:49 33.92645 -85.88459 33436 ft 271 kts 285°
2026-04-18 06:49 33.93196 -85.90604 33604 ft 271 kts 285°
2026-04-18 06:49 33.93760 -85.92805 33739 ft 272 kts 285°
2026-04-18 06:49 33.94317 -85.94980 33942 ft 272 kts 285°
2026-04-18 06:50 33.94867 -85.97125 34124 ft 272 kts 285°
2026-04-18 06:50 33.95418 -85.99281 34349 ft 270 kts 285°
2026-04-18 06:50 33.95977 -86.01468 34429 ft 273 kts 286°
2026-04-18 06:50 33.96532 -86.03644 34595 ft 273 kts 285°
2026-04-18 06:51 33.97088 -86.05822 34809 ft 271 kts 285°
2026-04-18 06:51 33.97639 -86.07984 34884 ft 273 kts 286°
2026-04-18 06:51 33.98196 -86.10169 35048 ft 273 kts 285°
2026-04-18 06:51 33.98756 -86.12373 35149 ft 274 kts 286°
2026-04-18 06:52 33.99313 -86.14562 35309 ft 274 kts 285°
2026-04-18 06:52 33.99876 -86.16777 35426 ft 274 kts 285°
2026-04-18 06:52 34.00426 -86.18944 35541 ft 275 kts 286°
2026-04-18 06:52 34.00990 -86.21166 35683 ft 275 kts 285°
2026-04-18 06:53 34.01546 -86.23360 35817 ft 275 kts 285°
2026-04-18 06:53 34.02101 -86.25552 35932 ft 276 kts 285°
2026-04-18 06:53 34.02661 -86.27769 36125 ft 274 kts 285°
2026-04-18 06:53 34.03208 -86.29929 36267 ft 273 kts 285°
2026-04-18 06:54 34.03767 -86.32142 36316 ft 275 kts 286°
2026-04-18 06:54 34.04321 -86.34338 36393 ft 276 kts 286°
2026-04-18 06:54 34.04886 -86.36578 36469 ft 277 kts 286°
2026-04-18 06:54 34.05442 -86.38786 36560 ft 278 kts 286°
2026-04-18 06:55 34.06001 -86.41007 36639 ft 278 kts 286°
2026-04-18 06:55 34.06557 -86.43217 36756 ft 278 kts 286°
2026-04-18 06:55 34.07118 -86.45450 36824 ft 278 kts 285°
2026-04-18 06:55 34.07680 -86.47688 36919 ft 278 kts 286°
2026-04-18 06:56 34.08237 -86.49908 37002 ft 278 kts 287°
2026-04-18 06:56 34.08797 -86.52140 37076 ft 279 kts 286°
2026-04-18 06:56 34.09361 -86.54395 37155 ft 280 kts 286°
2026-04-18 06:56 34.09926 -86.56652 37210 ft 280 kts 285°
2026-04-18 06:57 34.10489 -86.58901 37271 ft 281 kts 285°
2026-04-18 06:57 34.11605 -86.63370 37533 ft 278 kts 286°
2026-04-18 06:57 34.12165 -86.65616 37597 ft 279 kts 285°
2026-04-18 06:58 34.12721 -86.67848 37701 ft 279 kts 285°
2026-04-18 06:58 34.13284 -86.70111 37761 ft 281 kts 285°
2026-04-18 06:58 34.13845 -86.72366 37885 ft 280 kts 285°
2026-04-18 06:58 34.14405 -86.74618 37958 ft 281 kts 285°
2026-04-18 06:59 34.14965 -86.76878 38008 ft 283 kts 284°
2026-04-18 06:59 34.15531 -86.79157 38002 ft 284 kts 285°
2026-04-18 06:59 34.16099 -86.81451 38005 ft 286 kts 284°
2026-04-18 06:59 34.16672 -86.83762 38052 ft 288 kts 285°
2026-04-18 07:00 34.17240 -86.86059 38026 ft 290 kts 285°
2026-04-18 07:00 34.17827 -86.88432 38027 ft 292 kts 285°
2026-04-18 07:00 34.18404 -86.90769 38031 ft 293 kts 285°
2026-04-18 07:00 34.18993 -86.93157 38031 ft 295 kts 285°
2026-04-18 07:01 34.19578 -86.95529 38039 ft 297 kts 285°
2026-04-18 07:01 34.20169 -86.97932 38030 ft 298 kts 285°
2026-04-18 07:01 34.20766 -87.00359 38019 ft 299 kts 285°
2026-04-18 07:01 34.21353 -87.02743 38036 ft 300 kts 285°
2026-04-18 07:02 34.22544 -87.07594 38030 ft 304 kts 284°
2026-04-18 07:02 34.23749 -87.12515 37998 ft 306 kts 284°
2026-04-18 07:03 34.24960 -87.17465 37985 ft 308 kts 285°
2026-04-18 07:03 34.26169 -87.22417 37979 ft 309 kts 285°
2026-04-18 07:04 34.27389 -87.27424 37972 ft 309 kts 285°
2026-04-18 07:04 34.28610 -87.32447 37981 ft 311 kts 284°
2026-04-18 07:05 34.29824 -87.37450 37970 ft 310 kts 284°
2026-04-18 07:05 34.31033 -87.42439 37968 ft 308 kts 284°
2026-04-18 07:06 34.32229 -87.47383 37959 ft 306 kts 284°
2026-04-18 07:06 34.33410 -87.52283 37963 ft 303 kts 284°
2026-04-18 07:07 34.34585 -87.57162 37986 ft 300 kts 284°
2026-04-18 07:07 34.35167 -87.59583 37990 ft 299 kts 284°
2026-04-18 07:07 34.35740 -87.61969 37977 ft 299 kts 284°
2026-04-18 07:08 34.36325 -87.64407 37950 ft 298 kts 283°
2026-04-18 07:08 34.36898 -87.66797 37970 ft 297 kts 284°
2026-04-18 07:08 34.37469 -87.69179 37962 ft 297 kts 283°
2026-04-18 07:08 34.38045 -87.71587 37964 ft 298 kts 283°
2026-04-18 07:09 34.38623 -87.74009 37953 ft 298 kts 284°
2026-04-18 07:09 34.39197 -87.76413 37956 ft 299 kts 284°
2026-04-18 07:09 34.39775 -87.78833 37959 ft 300 kts 283°
2026-04-18 07:09 34.40351 -87.81251 37975 ft 302 kts 283°
2026-04-18 07:10 34.41515 -87.86143 37953 ft 304 kts 283°
2026-04-18 07:10 34.42691 -87.91093 37960 ft 307 kts 283°
2026-04-18 07:11 34.43864 -87.96040 37953 ft 308 kts 283°
2026-04-18 07:11 34.45047 -88.01041 37948 ft 310 kts 283°
2026-04-18 07:12 34.46231 -88.06053 37959 ft 311 kts 283°
2026-04-18 07:12 34.47418 -88.11092 37939 ft 312 kts 283°
2026-04-18 07:13 34.48608 -88.16151 37945 ft 312 kts 282°
2026-04-18 07:13 34.49791 -88.21191 37953 ft 312 kts 283°
2026-04-18 07:14 34.50978 -88.26257 37952 ft 312 kts 283°
2026-04-18 07:14 34.52154 -88.31288 37946 ft 313 kts 282°
2026-04-18 07:15 34.53339 -88.36366 37951 ft 312 kts 283°
2026-04-18 07:15 34.54517 -88.41428 37934 ft 312 kts 283°
2026-04-18 07:16 34.55690 -88.46477 37944 ft 311 kts 283°
2026-04-18 07:16 34.56857 -88.51511 37943 ft 311 kts 283°
2026-04-18 07:17 34.58019 -88.56534 37945 ft 311 kts 282°
2026-04-18 07:17 34.59171 -88.61593 37941 ft 309 kts 281°
2026-04-18 07:18 34.60191 -88.66616 37936 ft 309 kts 281°
2026-04-18 07:18 34.61210 -88.71722 37946 ft 310 kts 281°
2026-04-18 07:19 34.62222 -88.76794 37944 ft 310 kts 281°
2026-04-18 07:19 34.63238 -88.81890 37932 ft 311 kts 280°
2026-04-18 07:20 34.64256 -88.86998 37929 ft 312 kts 280°
2026-04-18 07:20 34.65271 -88.92105 37931 ft 312 kts 280°
2026-04-18 07:21 34.66282 -88.97195 37932 ft 312 kts 281°
2026-04-18 07:21 34.67294 -89.02305 37932 ft 312 kts 280°
2026-04-18 07:22 34.68303 -89.07413 37927 ft 311 kts 280°
2026-04-18 07:22 34.69309 -89.12516 37934 ft 311 kts 279°
2026-04-18 07:23 34.70313 -89.17621 37927 ft 311 kts 280°
2026-04-18 07:23 34.71313 -89.22721 37920 ft 311 kts 280°
2026-04-18 07:24 34.72316 -89.27844 37914 ft 310 kts 279°
2026-04-18 07:24 34.73305 -89.32907 37915 ft 310 kts 279°
2026-04-18 07:25 34.74304 -89.38036 37907 ft 310 kts 279°
2026-04-18 07:25 34.75286 -89.43087 37910 ft 309 kts 279°
2026-04-18 07:26 34.76273 -89.48181 37912 ft 308 kts 279°
2026-04-18 07:26 34.77251 -89.53234 37907 ft 308 kts 279°
2026-04-18 07:27 34.78227 -89.58295 37912 ft 307 kts 279°
2026-04-18 07:27 34.79195 -89.63323 37900 ft 307 kts 280°
2026-04-18 07:28 34.80171 -89.68408 37904 ft 308 kts 279°
2026-04-18 07:28 34.81139 -89.73460 37910 ft 309 kts 279°
2026-04-18 07:29 34.82112 -89.78553 37895 ft 310 kts 279°
2026-04-18 07:29 34.83087 -89.83663 37892 ft 311 kts 278°
2026-04-18 07:30 34.84057 -89.88763 37893 ft 310 kts 279°
2026-04-18 07:30 34.85022 -89.93848 37893 ft 311 kts 278°
2026-04-18 07:31 34.85997 -89.99002 37897 ft 311 kts 279°
2026-04-18 07:31 34.86959 -90.04100 37898 ft 311 kts 278°
2026-04-18 07:32 34.87929 -90.09249 37897 ft 311 kts 278°
2026-04-18 07:32 34.88891 -90.14368 37891 ft 311 kts 278°
2026-04-18 07:33 34.89854 -90.19504 37896 ft 311 kts 279°
2026-04-18 07:33 34.90812 -90.24629 37892 ft 311 kts 278°
2026-04-18 07:34 34.91763 -90.29726 37885 ft 311 kts 278°
2026-04-18 07:34 34.92725 -90.34898 37888 ft 310 kts 278°
2026-04-18 07:35 34.93667 -90.39976 37879 ft 310 kts 278°
2026-04-18 07:35 34.94617 -90.45108 37882 ft 310 kts 278°
2026-04-18 07:36 34.95483 -90.49795 37883 ft 309 kts 278°
2026-04-18 07:36 34.96326 -90.54371 37884 ft 309 kts 278°
2026-04-18 07:37 34.97267 -90.59493 37880 ft 308 kts 278°
2026-04-18 07:37 34.98193 -90.64544 37885 ft 307 kts 278°
2026-04-18 07:38 34.99125 -90.69643 37882 ft 309 kts 277°
2026-04-18 07:38 35.00057 -90.74754 37888 ft 310 kts 277°
2026-04-18 07:39 35.00994 -90.79902 37872 ft 312 kts 278°
2026-04-18 07:39 35.01929 -90.85050 37881 ft 312 kts 278°
2026-04-18 07:40 35.02862 -90.90205 37890 ft 312 kts 278°
2026-04-18 07:40 35.03791 -90.95352 37873 ft 313 kts 277°
2026-04-18 07:41 35.04725 -91.00536 37886 ft 313 kts 277°
2026-04-18 07:41 35.05662 -91.05752 37875 ft 313 kts 278°
2026-04-18 07:42 35.06591 -91.10940 37855 ft 315 kts 277°
2026-04-18 07:42 35.07526 -91.16169 37857 ft 314 kts 277°
2026-04-18 07:43 35.08452 -91.21362 37880 ft 314 kts 277°
2026-04-18 07:43 35.09381 -91.26589 37874 ft 315 kts 277°
2026-04-18 07:44 35.10304 -91.31797 37873 ft 315 kts 278°
2026-04-18 07:44 35.11225 -91.37006 37875 ft 315 kts 277°
2026-04-18 07:45 35.12150 -91.42249 37852 ft 315 kts 277°
2026-04-18 07:45 35.13071 -91.47483 37865 ft 315 kts 278°
2026-04-18 07:46 35.13984 -91.52689 37870 ft 315 kts 277°
2026-04-18 07:46 35.14899 -91.57920 37873 ft 314 kts 277°
2026-04-18 07:47 35.15807 -91.63123 37863 ft 313 kts 278°
2026-04-18 07:47 35.16711 -91.68315 37883 ft 313 kts 277°
2026-04-18 07:48 35.17606 -91.73480 37890 ft 316 kts 277°
2026-04-18 07:48 35.18511 -91.78706 37887 ft 317 kts 277°
2026-04-18 07:49 35.19420 -91.83975 37890 ft 319 kts 277°
2026-04-18 07:49 35.20335 -91.89288 37859 ft 319 kts 278°
2026-04-18 07:50 35.21240 -91.94558 37886 ft 320 kts 277°
2026-04-18 07:51 35.23066 -92.05241 37864 ft 320 kts 277°
2026-04-18 07:51 35.23972 -92.10561 37873 ft 321 kts 277°
2026-04-18 07:52 35.24880 -92.15909 37876 ft 321 kts 276°
2026-04-18 07:52 35.25787 -92.21263 37898 ft 321 kts 277°
2026-04-18 07:53 35.26689 -92.26609 37852 ft 323 kts 276°
2026-04-18 07:53 35.27589 -92.31956 37845 ft 323 kts 276°
2026-04-18 07:54 35.28494 -92.37345 37857 ft 321 kts 277°
2026-04-18 07:54 35.29380 -92.42639 37858 ft 321 kts 276°
2026-04-18 07:55 35.30275 -92.47997 37853 ft 320 kts 277°
2026-04-18 07:55 35.31161 -92.53320 37886 ft 320 kts 277°
2026-04-18 07:56 35.32045 -92.58650 37856 ft 321 kts 277°
2026-04-18 07:56 35.32931 -92.64004 37888 ft 320 kts 276°
2026-04-18 07:57 35.33812 -92.69343 37863 ft 321 kts 276°
2026-04-18 07:57 35.34690 -92.74684 37875 ft 322 kts 276°
2026-04-18 07:58 35.36012 -92.82749 37856 ft 323 kts 275°
2026-04-18 07:59 35.36893 -92.88142 37856 ft 323 kts 275°
2026-04-18 07:59 35.37702 -92.93548 37854 ft 322 kts 270°
2026-04-18 08:00 35.37164 -92.98823 37843 ft 318 kts 255°
2026-04-18 08:00 35.35784 -93.03960 37838 ft 318 kts 251°
2026-04-18 08:01 35.34206 -93.08984 37849 ft 317 kts 250°
2026-04-18 08:01 35.32617 -93.14024 37837 ft 317 kts 250°
2026-04-18 08:02 35.31891 -93.19319 37817 ft 318 kts 265°
2026-04-18 08:02 35.32028 -93.24751 37843 ft 320 kts 269°
2026-04-18 08:03 35.32375 -93.30188 37845 ft 319 kts 270°
2026-04-18 08:03 35.32750 -93.35554 37894 ft 318 kts 269°
2026-04-18 08:04 35.33138 -93.40969 37858 ft 318 kts 271°
2026-04-18 08:04 35.33541 -93.46345 37866 ft 317 kts 271°
2026-04-18 08:05 35.33959 -93.51746 37892 ft 318 kts 271°
2026-04-18 08:05 35.34394 -93.57137 37869 ft 318 kts 270°
2026-04-18 08:06 35.34839 -93.62481 37907 ft 315 kts 270°
2026-04-18 08:06 35.35736 -93.67857 37553 ft 330 kts 277°
2026-04-18 08:06 35.36311 -93.70584 37049 ft 338 kts 277°
2026-04-18 08:07 35.36908 -93.73369 36526 ft 341 kts 277°
2026-04-18 08:07 35.37513 -93.76170 36032 ft 343 kts 277°
2026-04-18 08:07 35.38120 -93.78992 35510 ft 343 kts 278°
2026-04-18 08:07 35.38726 -93.81809 35022 ft 345 kts 277°
2026-04-18 08:08 35.39334 -93.84642 34500 ft 345 kts 277°
2026-04-18 08:08 35.39942 -93.87481 33988 ft 347 kts 277°
2026-04-18 08:08 35.40558 -93.90367 33475 ft 349 kts 278°
2026-04-18 08:08 35.41174 -93.93256 33013 ft 350 kts 278°
2026-04-18 08:09 35.41785 -93.96126 32554 ft 353 kts 277°
2026-04-18 08:09 35.42400 -93.99008 32082 ft 353 kts 278°
2026-04-18 08:09 35.43026 -94.01942 31615 ft 353 kts 278°
2026-04-18 08:09 35.43643 -94.04851 31157 ft 352 kts 277°
2026-04-18 08:10 35.44252 -94.07722 30691 ft 349 kts 277°
2026-04-18 08:10 35.44855 -94.10569 30234 ft 339 kts 278°
2026-04-18 08:10 35.45428 -94.13268 29766 ft 326 kts 277°
2026-04-18 08:10 35.45991 -94.15905 29294 ft 314 kts 277°
2026-04-18 08:11 35.46529 -94.18446 28830 ft 301 kts 277°
2026-04-18 08:11 35.47039 -94.20864 28380 ft 293 kts 277°
2026-04-18 08:11 35.47541 -94.23254 27933 ft 288 kts 277°
2026-04-18 08:11 35.48037 -94.25619 27475 ft 283 kts 276°
2026-04-18 08:12 35.48514 -94.27909 27064 ft 277 kts 277°
2026-04-18 08:12 35.48988 -94.30174 26689 ft 271 kts 277°
2026-04-18 08:12 35.49449 -94.32375 26343 ft 265 kts 276°
2026-04-18 08:12 35.49905 -94.34559 26009 ft 260 kts 276°
2026-04-18 08:13 35.50349 -94.36688 25688 ft 261 kts 276°
2026-04-18 08:13 35.50799 -94.38860 25356 ft 263 kts 277°
2026-04-18 08:13 35.51249 -94.41032 25038 ft 265 kts 277°
2026-04-18 08:13 35.51699 -94.43205 24718 ft 267 kts 277°
2026-04-18 08:14 35.52161 -94.45431 24398 ft 268 kts 277°
2026-04-18 08:14 35.52620 -94.47639 24120 ft 268 kts 277°
2026-04-18 08:14 35.53078 -94.49847 23842 ft 267 kts 278°
2026-04-18 08:14 35.53534 -94.52042 23546 ft 267 kts 277°
2026-04-18 08:15 35.53992 -94.54254 23257 ft 267 kts 278°
2026-04-18 08:15 35.54456 -94.56499 22967 ft 273 kts 278°
2026-04-18 08:15 35.54922 -94.58759 22681 ft 278 kts 278°
2026-04-18 08:15 35.55402 -94.61082 22393 ft 282 kts 278°
2026-04-18 08:16 35.55881 -94.63403 22133 ft 285 kts 278°
2026-04-18 08:16 35.56372 -94.65785 21862 ft 288 kts 277°
2026-04-18 08:16 35.56863 -94.68168 21542 ft 290 kts 277°
2026-04-18 08:16 35.57357 -94.70567 21249 ft 291 kts 277°
2026-04-18 08:17 35.57851 -94.72971 20939 ft 291 kts 277°
2026-04-18 08:17 35.58341 -94.75360 20625 ft 292 kts 277°
2026-04-18 08:17 35.58841 -94.77799 20289 ft 294 kts 277°
2026-04-18 08:17 35.59341 -94.80244 19951 ft 295 kts 277°
2026-04-18 08:18 35.59836 -94.82664 19616 ft 296 kts 277°
2026-04-18 08:18 35.60339 -94.85127 19270 ft 298 kts 277°
2026-04-18 08:18 35.60843 -94.87603 18974 ft 298 kts 276°
2026-04-18 08:18 35.61337 -94.90005 18620 ft 289 kts 277°
2026-04-18 08:19 35.61819 -94.92319 18265 ft 271 kts 276°
2026-04-18 08:19 35.62266 -94.94502 17930 ft 258 kts 276°
2026-04-18 08:19 35.62692 -94.96579 17592 ft 248 kts 276°
2026-04-18 08:19 35.63108 -94.98620 17292 ft 240 kts 276°
2026-04-18 08:20 35.63502 -95.00559 17009 ft 233 kts 275°
2026-04-18 08:20 35.63886 -95.02451 16738 ft 226 kts 275°
2026-04-18 08:20 35.64262 -95.04307 16486 ft 221 kts 275°
2026-04-18 08:20 35.64626 -95.06114 16224 ft 216 kts 275°
2026-04-18 08:21 35.64981 -95.07878 15958 ft 213 kts 275°
2026-04-18 08:21 35.65339 -95.09651 15673 ft 213 kts 276°
2026-04-18 08:21 35.65694 -95.11418 15399 ft 213 kts 276°
2026-04-18 08:21 35.66046 -95.13176 15156 ft 212 kts 276°
2026-04-18 08:22 35.66401 -95.14939 14895 ft 211 kts 276°
2026-04-18 08:22 35.66747 -95.16666 14634 ft 210 kts 276°
2026-04-18 08:22 35.67096 -95.18405 14411 ft 208 kts 276°
2026-04-18 08:22 35.67442 -95.20130 14197 ft 208 kts 276°
2026-04-18 08:23 35.67791 -95.21867 13983 ft 208 kts 276°
2026-04-18 08:23 35.68138 -95.23603 13762 ft 209 kts 276°
2026-04-18 08:23 35.68484 -95.25332 13552 ft 209 kts 277°
2026-04-18 08:23 35.68832 -95.27071 13335 ft 209 kts 277°
2026-04-18 08:24 35.69179 -95.28807 13118 ft 210 kts 276°
2026-04-18 08:24 35.69523 -95.30521 12906 ft 207 kts 277°
2026-04-18 08:24 35.69865 -95.32230 12684 ft 204 kts 277°
2026-04-18 08:24 35.70202 -95.33911 12460 ft 202 kts 277°
2026-04-18 08:25 35.70540 -95.35604 12242 ft 201 kts 276°
2026-04-18 08:25 35.70867 -95.37242 12026 ft 199 kts 276°
2026-04-18 08:25 35.71196 -95.38895 11807 ft 198 kts 276°
2026-04-18 08:25 35.71505 -95.40540 11586 ft 196 kts 273°
2026-04-18 08:26 35.71639 -95.42189 11368 ft 193 kts 269°
2026-04-18 08:26 35.71704 -95.43848 11148 ft 195 kts 268°
2026-04-18 08:26 35.71751 -95.45516 10933 ft 197 kts 267°
2026-04-18 08:26 35.71793 -95.47224 10710 ft 204 kts 267°
2026-04-18 08:27 35.71834 -95.48988 10508 ft 212 kts 267°
2026-04-18 08:27 35.71880 -95.50835 10288 ft 219 kts 270°
2026-04-18 08:27 35.72136 -95.52730 10072 ft 228 kts 278°
2026-04-18 08:27 35.72569 -95.54633 9837 ft 233 kts 281°
2026-04-18 08:28 35.73048 -95.56522 9624 ft 233 kts 282°
2026-04-18 08:28 35.73540 -95.58408 9409 ft 226 kts 282°
2026-04-18 08:28 35.74007 -95.60200 9189 ft 218 kts 282°
2026-04-18 08:28 35.74460 -95.61953 8953 ft 213 kts 282°
2026-04-18 08:29 35.74896 -95.63664 8731 ft 208 kts 283°
2026-04-18 08:29 35.75314 -95.65359 8511 ft 205 kts 282°
2026-04-18 08:29 35.75702 -95.67037 8281 ft 202 kts 282°
2026-04-18 08:29 35.76071 -95.68680 8046 ft 201 kts 282°
2026-04-18 08:30 35.76446 -95.70341 7822 ft 201 kts 282°
2026-04-18 08:30 35.76798 -95.72016 7560 ft 204 kts 282°
2026-04-18 08:30 35.77128 -95.73745 7182 ft 209 kts 282°
2026-04-18 08:30 35.77434 -95.75473 6803 ft 208 kts 282°
2026-04-18 08:31 35.77726 -95.77213 6428 ft 207 kts 282°
2026-04-18 08:31 35.77999 -95.78926 6049 ft 204 kts 283°
2026-04-18 08:31 35.78253 -95.80647 5676 ft 202 kts 282°
2026-04-18 08:31 35.78474 -95.82353 5326 ft 200 kts 283°
2026-04-18 08:32 35.78652 -95.84051 5002 ft 201 kts 283°
2026-04-18 08:32 35.78791 -95.85750 4673 ft 199 kts 282°
2026-04-18 08:32 35.78903 -95.87439 4367 ft 196 kts 283°
2026-04-18 08:32 35.78986 -95.89085 4085 ft 193 kts 282°
2026-04-18 08:33 35.79042 -95.90730 3798 ft 191 kts 282°
2026-04-18 08:33 35.79086 -95.92360 3508 ft 187 kts 288°
2026-04-18 08:33 35.79586 -95.93668 3243 ft 162 kts 319°
2026-04-18 08:33 35.80332 -95.94669 3003 ft 154 kts 324°
2026-04-18 08:34 35.81083 -95.95549 2954 ft 142 kts 327°
2026-04-18 08:34 35.81765 -95.96353 2952 ft 130 kts 327°
2026-04-18 08:34 35.82371 -95.97107 2944 ft 119 kts 327°
2026-04-18 08:34 35.82917 -95.97809 2947 ft 108 kts 327°
2026-04-18 08:35 35.83412 -95.98467 2963 ft 103 kts 326°
2026-04-18 08:35 35.83917 -95.99137 3007 ft 109 kts 328°
2026-04-18 08:35 35.84443 -95.99875 3019 ft 123 kts 318°
2026-04-18 08:35 35.84896 -96.00842 3019 ft 136 kts 313°
2026-04-18 08:36 35.85411 -96.01864 3000 ft 141 kts 321°
2026-04-18 08:36 35.86082 -96.02782 2996 ft 145 kts 327°
2026-04-18 08:36 35.86929 -96.03402 3000 ft 143 kts 346°
2026-04-18 08:36 35.87904 -96.03626 2994 ft 140 kts
2026-04-18 08:37 35.88788 -96.03445 3022 ft 124 kts 18°
2026-04-18 08:37 35.89560 -96.03014 2988 ft 117 kts 21°
2026-04-18 08:37 35.90263 -96.02656 2965 ft 101 kts 18°
2026-04-18 08:37 35.90920 -96.02401 2976 ft 96 kts 14°
2026-04-18 08:38 35.91568 -96.02197 3029 ft 95 kts 13°
2026-04-18 08:38 35.92221 -96.02008 2947 ft 98 kts 13°
2026-04-18 08:38 35.92903 -96.01811 2734 ft 101 kts 12°
2026-04-18 08:38 35.93579 -96.01618 2590 ft 98 kts 12°
2026-04-18 08:39 35.94239 -96.01426 2475 ft 98 kts 13°
2026-04-18 08:39 35.94903 -96.01233 2351 ft 94 kts 13°
2026-04-18 08:39 35.95483 -96.01063 2262 ft 86 kts 12°
2026-04-18 08:39 35.96080 -96.00890 2097 ft 87 kts 12°
2026-04-18 08:40 35.96669 -96.00717 1986 ft 86 kts 12°
2026-04-18 08:40 35.97263 -96.00543 1892 ft 87 kts 12°
2026-04-18 08:40 35.97882 -96.00362 1761 ft 93 kts 12°
2026-04-18 08:40 35.98518 -96.00179 1628 ft 95 kts 12°
2026-04-18 08:41 35.99165 -95.99990 1489 ft 95 kts 12°
2026-04-18 08:41 35.99824 -95.99802 1350 ft 98 kts 12°
2026-04-18 08:41 36.00493 -95.99611 1225 ft 100 kts 12°
2026-04-18 08:41 36.01173 -95.99406 1068 ft 101 kts 12°
2026-04-18 08:42 36.01862 -95.99219 942 ft 98 kts 12°
2026-04-18 08:42 36.02520 -95.99017 807 ft 99 kts 12°
2026-04-18 08:42 36.03199 -95.98815 682 ft 100 kts 13°
2026-04-18 08:42 36.03837 -95.98628 621 ft 85 kts 14°
2026-04-18 08:43 36.04259 -95.98510 620 ft 27 kts 16°
2026-04-18 08:43 36.04339 -95.98493 620 ft 7 kts 346°
2026-04-18 08:43 36.04380 -95.98536 620 ft 9 kts 279°
2026-04-18 08:43 36.04357 -95.98619 620 ft 11 kts 214°
2026-04-18 08:44 36.04286 -95.98645 620 ft 10 kts 194°
2026-04-18 08:44 36.04220 -95.98666 620 ft 9 kts 193°
2026-04-18 08:44 36.04158 -95.98684 620 ft 9 kts 193°
2026-04-18 08:44 36.04081 -95.98704 620 ft 12 kts 193°
2026-04-18 08:45 36.03997 -95.98730 620 ft 11 kts 194°
2026-04-18 08:45 36.03931 -95.98751 620 ft 7 kts 210°
2026-04-18 08:45 36.03928 -95.98802 620 ft 5 kts 283°
2026-04-18 08:45 36.03925 -95.98837 620 ft 3 kts 197°
2026-04-18 08:46 36.03919 -95.98839 620 ft 0 kts 188°
2026-04-18 08:46 36.03913 -95.98837 620 ft 0 kts 175°
2026-04-18 08:46 36.03909 -95.98838 620 ft 1 kts 188°
2026-04-18 08:46 36.03908 -95.98838 620 ft 0 kts 194°